Time,TemperatureF,DewpointF,PressureIn,WindDirection,WindDirectionDegrees,WindSpeedMPH,WindSpeedGustMPH,Humidity,HourlyPrecipIn,Conditions,Clouds,dailyrainin,SoftwareType,DateUTC
2013-02-19 00:10:00,56.6,51.0,30.21,NE,49,2.0,4.0,81,0.00,,,0.00,weatherlink.com 1.10,2013-02-19 05:10:00,
2013-02-19 00:25:00,56.3,51.0,30.21,NE,49,2.0,5.0,81,0.00,,,0.00,weatherlink.com 1.10,2013-02-19 05:25:00,
2013-02-19 00:40:00,56.0,50.0,30.21,NE,49,3.0,4.0,81,0.00,,,0.00,weatherlink.com 1.10,2013-02-19 05:40:00,
2013-02-19 00:55:00,55.9,51.0,30.21,NE,49,4.0,4.0,82,0.00,,,0.00,weatherlink.com 1.10,2013-02-19 05:55:00,
2013-02-19 01:10:00,55.9,51.0,30.20,NE,49,2.0,3.0,82,0.00,,,0.00,weatherlink.com 1.10,2013-02-19 06:10:00,
2013-02-19 01:25:00,55.8,51.0,30.20,NE,49,3.0,4.0,83,0.00,,,0.00,weatherlink.com 1.10,2013-02-19 06:25:00,
2013-02-19 01:40:00,55.7,51.0,30.20,NE,49,1.0,4.0,83,0.00,,,0.00,weatherlink.com 1.10,2013-02-19 06:40:00,
2013-02-19 01:55:00,55.5,50.0,30.20,NE,49,3.0,5.0,83,0.00,,,0.00,weatherlink.com 1.10,2013-02-19 06:55:00,
2013-02-19 02:10:00,55.3,50.0,30.19,NE,49,4.0,5.0,83,0.00,,,0.00,weatherlink.com 1.10,2013-02-19 07:10:00,
2013-02-19 02:25:00,55.0,50.0,30.18,NE,49,2.0,3.0,83,0.00,,,0.00,weatherlink.com 1.10,2013-02-19 07:25:00,
2013-02-19 02:40:00,54.8,50.0,30.17,NE,49,2.0,4.0,84,0.00,,,0.00,weatherlink.com 1.10,2013-02-19 07:40:00,
2013-02-19 02:55:00,54.6,50.0,30.17,NE,49,4.0,5.0,84,0.00,,,0.00,weatherlink.com 1.10,2013-02-19 07:55:00,
2013-02-19 03:10:00,54.5,50.0,30.17,NE,49,2.0,5.0,85,0.00,,,0.00,weatherlink.com 1.10,2013-02-19 08:10:00,
2013-02-19 03:25:00,54.7,50.0,30.16,NE,49,1.0,5.0,85,0.00,,,0.00,weatherlink.com 1.10,2013-02-19 08:25:00,
2013-02-19 03:41:00,54.6,50.0,30.16,NE,49,2.0,4.0,85,0.00,,,0.00,weatherlink.com 1.10,2013-02-19 08:41:00,
2013-02-19 03:56:00,54.3,50.0,30.16,NE,49,2.0,4.0,85,0.00,,,0.00,weatherlink.com 1.10,2013-02-19 08:56:00,
2013-02-19 04:11:00,54.1,50.0,30.16,NE,49,3.0,6.0,85,0.00,,,0.00,weatherlink.com 1.10,2013-02-19 09:11:00,
2013-02-19 04:26:00,54.0,50.0,30.16,NE,49,3.0,4.0,86,0.00,,,0.00,weatherlink.com 1.10,2013-02-19 09:26:00,
2013-02-19 04:41:00,53.9,50.0,30.16,NE,49,3.0,5.0,86,0.00,,,0.00,weatherlink.com 1.10,2013-02-19 09:41:00,
2013-02-19 04:56:00,53.9,50.0,30.16,NE,49,3.0,6.0,87,0.00,,,0.00,weatherlink.com 1.10,2013-02-19 09:56:00,
2013-02-19 05:11:00,54.3,51.0,30.18,NE,49,3.0,5.0,88,0.00,,,0.00,weatherlink.com 1.10,2013-02-19 10:11:00,
2013-02-19 05:26:00,55.1,52.0,30.18,NNE,22,6.0,6.0,88,0.00,,,0.00,weatherlink.com 1.10,2013-02-19 10:26:00,
2013-02-19 05:41:00,55.2,52.0,30.17,NNE,30,3.0,6.0,88,0.00,,,0.00,weatherlink.com 1.10,2013-02-19 10:41:00,
2013-02-19 05:56:00,55.1,52.0,30.17,NE,37,4.0,6.0,88,0.00,,,0.00,weatherlink.com 1.10,2013-02-19 10:56:00,
2013-02-19 06:11:00,55.1,52.0,30.18,NNE,32,3.0,6.0,88,0.00,,,0.00,weatherlink.com 1.10,2013-02-19 11:11:00,
2013-02-19 06:26:00,55.0,52.0,30.18,NNE,32,4.0,6.0,88,0.00,,,0.00,weatherlink.com 1.10,2013-02-19 11:26:00,
2013-02-19 06:41:00,54.8,51.0,30.18,NE,38,3.0,4.0,88,0.00,,,0.00,weatherlink.com 1.10,2013-02-19 11:41:00,
2013-02-19 06:56:00,54.5,51.0,30.19,NE,39,1.0,3.0,88,0.00,,,0.00,weatherlink.com 1.10,2013-02-19 11:56:00,
2013-02-19 07:11:00,54.2,51.0,30.19,NE,39,1.0,3.0,88,0.00,,,0.00,weatherlink.com 1.10,2013-02-19 12:11:00,
2013-02-19 07:26:00,54.1,51.0,30.19,NE,39,2.0,4.0,89,0.00,,,0.00,weatherlink.com 1.10,2013-02-19 12:26:00,
2013-02-19 07:41:00,54.6,52.0,30.19,NE,39,3.0,4.0,90,0.00,,,0.00,weatherlink.com 1.10,2013-02-19 12:41:00,
2013-02-19 07:56:00,55.4,53.0,30.19,NE,40,4.0,5.0,90,0.00,,,0.00,weatherlink.com 1.10,2013-02-19 12:56:00,
2013-02-19 08:11:00,56.8,54.0,30.19,NE,52,3.0,6.0,91,0.00,,,0.00,weatherlink.com 1.10,2013-02-19 13:11:00,
2013-02-19 08:26:00,58.6,56.0,30.19,East,81,3.0,6.0,90,0.00,,,0.00,weatherlink.com 1.10,2013-02-19 13:26:00,
2013-02-19 08:41:00,60.5,57.0,30.19,East,94,3.0,7.0,89,0.00,,,0.00,weatherlink.com 1.10,2013-02-19 13:41:00,
2013-02-19 08:56:00,62.5,59.0,30.19,East,88,1.0,7.0,87,0.00,,,0.00,weatherlink.com 1.10,2013-02-19 13:56:00,
2013-02-19 09:11:00,64.8,60.0,30.19,SSE,152,4.0,8.0,84,0.00,,,0.00,weatherlink.com 1.10,2013-02-19 14:11:00,
2013-02-19 09:26:00,67.1,61.0,30.19,ENE,68,9.0,10.0,82,0.00,,,0.00,weatherlink.com 1.10,2013-02-19 14:26:00,
2013-02-19 09:41:00,69.2,62.0,30.19,East,95,10.0,13.0,78,0.00,,,0.00,weatherlink.com 1.10,2013-02-19 14:41:00,
2013-02-19 09:56:00,70.6,63.0,30.19,East,93,11.0,15.0,76,0.00,,,0.00,weatherlink.com 1.10,2013-02-19 14:56:00,
2013-02-19 10:11:00,72.0,63.0,30.18,ESE,120,14.0,20.0,74,0.00,,,0.00,weatherlink.com 1.10,2013-02-19 15:11:00,
2013-02-19 10:26:00,72.9,63.0,30.19,SE,129,15.0,19.0,72,0.00,,,0.00,weatherlink.com 1.10,2013-02-19 15:26:00,
2013-02-19 10:41:00,73.9,64.0,30.19,ENE,69,9.0,20.0,71,0.00,,,0.00,weatherlink.com 1.10,2013-02-19 15:41:00,
2013-02-19 10:57:00,74.7,64.0,30.18,SSE,160,11.0,16.0,70,0.00,,,0.00,weatherlink.com 1.10,2013-02-19 15:57:00,
2013-02-19 11:12:00,75.3,64.0,30.18,South,169,12.0,20.0,69,0.00,,,0.00,weatherlink.com 1.10,2013-02-19 16:12:00,
2013-02-19 11:27:00,76.0,65.0,30.18,South,191,12.0,20.0,68,0.00,,,0.00,weatherlink.com 1.10,2013-02-19 16:27:00,
2013-02-19 11:42:00,76.0,65.0,30.18,SE,140,8.0,17.0,68,0.00,,,0.00,weatherlink.com 1.10,2013-02-19 16:42:00,
2013-02-19 11:57:00,76.3,65.0,30.18,South,180,9.0,17.0,68,0.00,,,0.00,weatherlink.com 1.10,2013-02-19 16:57:00,
2013-02-19 12:12:00,76.9,65.0,30.17,SE,133,2.0,16.0,67,0.00,,,0.00,weatherlink.com 1.10,2013-02-19 17:12:00,
2013-02-19 12:27:00,77.3,65.0,30.17,SSE,168,8.0,15.0,65,0.00,,,0.00,weatherlink.com 1.10,2013-02-19 17:27:00,
2013-02-19 12:42:00,76.7,64.0,30.16,SSE,162,11.0,14.0,66,0.00,,,0.00,weatherlink.com 1.10,2013-02-19 17:42:00,
2013-02-19 12:57:00,76.7,65.0,30.16,South,175,7.0,16.0,67,0.00,,,0.00,weatherlink.com 1.10,2013-02-19 17:57:00,
2013-02-19 13:12:00,77.1,65.0,30.15,South,191,6.0,17.0,67,0.00,,,0.00,weatherlink.com 1.10,2013-02-19 18:12:00,
2013-02-19 13:27:00,78.0,65.0,30.14,SE,143,12.0,18.0,65,0.00,,,0.00,weatherlink.com 1.10,2013-02-19 18:27:00,
2013-02-19 13:42:00,78.2,66.0,30.13,SSE,162,15.0,19.0,66,0.00,,,0.00,weatherlink.com 1.10,2013-02-19 18:42:00,
2013-02-19 13:57:00,78.7,66.0,30.13,SSW,197,11.0,16.0,65,0.00,,,0.00,weatherlink.com 1.10,2013-02-19 18:57:00,
2013-02-19 14:12:00,79.4,66.0,30.12,SSW,203,10.0,14.0,63,0.00,,,0.00,weatherlink.com 1.10,2013-02-19 19:12:00,
2013-02-19 14:27:00,78.3,66.0,30.12,South,170,8.0,15.0,65,0.00,,,0.00,weatherlink.com 1.10,2013-02-19 19:27:00,
2013-02-19 14:42:00,77.3,65.0,30.12,SE,146,10.0,14.0,67,0.00,,,0.00,weatherlink.com 1.10,2013-02-19 19:42:00,
2013-02-19 14:57:00,77.3,66.0,30.12,SW,218,6.0,15.0,68,0.00,,,0.00,weatherlink.com 1.10,2013-02-19 19:57:00,
2013-02-19 15:12:00,77.5,66.0,30.12,SW,216,1.0,12.0,68,0.00,,,0.00,weatherlink.com 1.10,2013-02-19 20:12:00,
2013-02-19 15:27:00,77.4,66.0,30.11,SSW,196,6.0,16.0,68,0.00,,,0.00,weatherlink.com 1.10,2013-02-19 20:27:00,
2013-02-19 15:42:00,77.1,66.0,30.11,South,185,8.0,14.0,69,0.00,,,0.00,weatherlink.com 1.10,2013-02-19 20:42:00,
2013-02-19 15:57:00,76.7,66.0,30.11,SSW,195,6.0,11.0,70,0.00,,,0.00,weatherlink.com 1.10,2013-02-19 20:57:00,
2013-02-19 16:12:00,76.7,67.0,30.11,SW,216,6.0,8.0,71,0.00,,,0.00,weatherlink.com 1.10,2013-02-19 21:12:00,
2013-02-19 16:27:00,77.3,67.0,30.10,SSW,211,5.0,10.0,70,0.00,,,0.00,weatherlink.com 1.10,2013-02-19 21:27:00,
2013-02-19 16:42:00,77.5,67.0,30.10,SSW,195,4.0,12.0,69,0.00,,,0.00,weatherlink.com 1.10,2013-02-19 21:42:00,
2013-02-19 16:57:00,77.2,67.0,30.10,SSW,212,7.0,12.0,70,0.00,,,0.00,weatherlink.com 1.10,2013-02-19 21:57:00,
2013-02-19 17:12:00,77.0,67.0,30.10,South,185,8.0,11.0,70,0.00,,,0.00,weatherlink.com 1.10,2013-02-19 22:12:00,
2013-02-19 17:27:00,76.4,67.0,30.11,SSW,201,4.0,9.0,72,0.00,,,0.00,weatherlink.com 1.10,2013-02-19 22:27:00,
2013-02-19 17:42:00,75.8,67.0,30.11,SSW,206,5.0,10.0,73,0.00,,,0.00,weatherlink.com 1.10,2013-02-19 22:42:00,
2013-02-19 17:57:00,75.0,66.0,30.11,SSW,192,4.0,7.0,74,0.00,,,0.00,weatherlink.com 1.10,2013-02-19 22:57:00,
2013-02-19 18:12:00,74.1,66.0,30.11,South,175,5.0,8.0,75,0.00,,,0.00,weatherlink.com 1.10,2013-02-19 23:12:00,
2013-02-19 18:27:00,73.3,66.0,30.11,SSW,195,4.0,6.0,77,0.00,,,0.00,weatherlink.com 1.10,2013-02-19 23:27:00,
2013-02-19 18:42:00,72.7,66.0,30.11,SSW,199,4.0,5.0,79,0.00,,,0.00,weatherlink.com 1.10,2013-02-19 23:42:00,
2013-02-19 18:57:00,72.3,65.0,30.12,SSW,199,2.0,5.0,79,0.00,,,0.00,weatherlink.com 1.10,2013-02-19 23:57:00,
2013-02-19 19:12:00,71.9,65.0,30.12,SSW,199,2.0,5.0,80,0.00,,,0.00,weatherlink.com 1.10,2013-02-20 00:12:00,
2013-02-19 19:27:00,71.6,66.0,30.12,SSW,199,3.0,4.0,81,0.00,,,0.00,weatherlink.com 1.10,2013-02-20 00:27:00,
2013-02-19 19:42:00,71.1,65.0,30.12,SSW,199,3.0,3.0,82,0.00,,,0.00,weatherlink.com 1.10,2013-02-20 00:42:00,
2013-02-19 19:57:00,70.6,65.0,30.13,SSW,199,0.0,4.0,83,0.00,,,0.00,weatherlink.com 1.10,2013-02-20 00:57:00,
2013-02-19 20:12:00,70.3,65.0,30.12,SSW,199,0.0,2.0,84,0.00,,,0.00,weatherlink.com 1.10,2013-02-20 01:12:00,
2013-02-19 20:27:00,70.1,65.0,30.12,SSW,199,0.0,0.0,84,0.00,,,0.00,weatherlink.com 1.10,2013-02-20 01:27:00,
2013-02-19 20:42:00,69.9,65.0,30.12,SSW,199,0.0,0.0,85,0.00,,,0.00,weatherlink.com 1.10,2013-02-20 01:42:00,
2013-02-19 20:57:00,69.4,65.0,30.12,SSW,199,0.0,0.0,85,0.00,,,0.00,weatherlink.com 1.10,2013-02-20 01:57:00,
2013-02-19 21:12:00,68.9,65.0,30.12,SSW,199,0.0,1.0,86,0.00,,,0.00,weatherlink.com 1.10,2013-02-20 02:12:00,
2013-02-19 21:27:00,68.8,65.0,30.12,SSW,199,0.0,0.0,86,0.00,,,0.00,weatherlink.com 1.10,2013-02-20 02:27:00,
2013-02-19 21:42:00,68.6,65.0,30.12,WSW,239,0.0,3.0,87,0.00,,,0.00,weatherlink.com 1.10,2013-02-20 02:42:00,
2013-02-19 21:57:00,68.6,65.0,30.13,WSW,239,0.0,0.0,88,0.00,,,0.00,weatherlink.com 1.10,2013-02-20 02:57:00,
2013-02-19 22:12:00,68.5,65.0,30.13,WSW,239,1.0,3.0,88,0.00,,,0.00,weatherlink.com 1.10,2013-02-20 03:12:00,
2013-02-19 22:27:00,68.3,65.0,30.13,WSW,239,1.0,3.0,88,0.00,,,0.00,weatherlink.com 1.10,2013-02-20 03:27:00,
2013-02-19 22:42:00,67.5,64.0,30.13,WSW,239,0.0,2.0,89,0.00,,,0.00,weatherlink.com 1.10,2013-02-20 03:42:00,
2013-02-19 22:57:00,67.1,64.0,30.13,WSW,239,0.0,3.0,89,0.00,,,0.00,weatherlink.com 1.10,2013-02-20 03:57:00,
2013-02-19 23:12:00,66.4,63.0,30.13,WSW,239,0.0,0.0,88,0.00,,,0.00,weatherlink.com 1.10,2013-02-20 04:12:00,
2013-02-19 23:27:00,65.8,63.0,30.12,WSW,239,0.0,0.0,89,0.00,,,0.00,weatherlink.com 1.10,2013-02-20 04:27:00,
2013-02-19 23:42:00,65.2,62.0,30.12,WSW,239,0.0,1.0,89,0.00,,,0.00,weatherlink.com 1.10,2013-02-20 04:42:00,
2013-02-19 23:57:00,64.8,62.0,30.12,WSW,239,0.0,2.0,89,0.00,,,0.00,weatherlink.com 1.10,2013-02-20 04:57:00,